Theta_e
282 281 280 280 280 280 279 278 279 278 278 278 279 279 279 280 282 280 280 281 282 281 281 281 280 280 280 280 280 280 281 283 282 282 282 282 283 283 283 283 282 282 283 282 281 282 281 281 281 281 281 282 282 282 283 283 284 285 286 286 286 287 290 293 294 295 293 292 294 293 294 295 296 296 296 297 298 301 304 306 309 313 315 318 321
281 280 279 278 279 278 278 278 280 279 279 278 279 280 279 279 279 280 280 280 280 280 282 282 280 280 280 280 279 280 280 280 280 281 282 284 282 282 282 282 282 281 282 281 281 280 280 280 280 280 281 281 282 283 284 285 285 285 285 285 286 287 288 293 295 294 291 289 288 289 291 293 294 294 294 295 297 299 301 304 308 311 314 317 321
280 280 279 279 279 278 278 278 279 281 280 280 279 278 278 278 279 280 280 280 280 281 282 280 280 281 280 280 280 279 280 281 281 282 282 282 281 281 282 281 281 281 281 282 281 281 280 280 280 280 281 282 282 282 283 282 283 283 284 284 284 287 288 291 292 293 289 290 291 289 287 287 291 293 295 297 299 301 303 305 308 310 313 316 319
280 280 279 278 279 278 277 277 278 277 279 278 278 278 279 281 279 279 279 280 280 280 285 281 281 282 281 280 280 280 279 283 282 281 280 280 280 281 280 281 281 281 281 280 281 280 280 280 280 280 281 282 281 280 280 280 281 282 283 284 286 285 287 288 291 292 292 291 286 287 287 288 285 287 289 295 302 305 307 309 310 311 313 315 318
281 280 279 278 278 277 277 279 278 278 278 279 278 278 280 279 279 279 279 279 279 283 282 281 282 279 279 280 280 280 280 279 278 278 279 280 281 279 279 280 280 280 280 280 281 280 280 280 280 280 280 280 280 280 280 280 281 282 283 284 286 287 286 288 290 292 292 294 291 288 285 285 285 287 290 290 294 296 299 303 306 310 313 314 316
282 280 279 279 278 278 277 277 277 278 278 279 279 279 278 279 278 278 278 278 279 279 280 281 280 278 277 277 277 277 276 277 277 277 278 278 278 279 279 279 279 279 279 279 279 280 280 280 280 280 279 280 280 280 280 280 280 280 282 283 284 285 285 286 286 290 293 293 294 294 292 287 286 287 288 284 290 295 295 296 297 300 302 307 312
281 280 279 278 278 277 277 277 278 278 279 278 277 277 277 277 277 278 277 278 279 279 279 282 277 278 277 277 277 276 275 276 277 278 277 278 278 278 278 279 279 279 279 279 279 279 280 280 279 279 279 279 280 279 278 279 279 280 282 282 282 284 285 285 285 287 291 293 294 295 295 294 294 290 286 288 286 290 292 293 296 300 303 304 306
281 280 279 279 278 278 278 278 277 279 279 277 277 277 277 277 277 277 277 280 279 278 278 279 278 277 277 276 278 277 276 276 277 277 278 279 278 278 278 278 278 278 279 279 279 279 280 279 279 279 279 278 279 278 278 279 280 280 281 281 281 281 282 283 286 288 287 287 292 293 294 294 294 294 293 290 288 286 288 292 295 297 299 299 301
281 280 279 278 278 278 279 278 278 278 277 278 278 278 277 276 277 277 277 277 277 277 279 277 279 278 276 276 275 277 277 278 278 279 277 277 276 277 277 277 277 278 278 278 278 279 280 279 279 278 278 278 279 279 278 279 279 279 279 279 279 281 283 286 286 286 286 286 288 289 291 292 293 294 295 293 290 289 289 290 291 295 298 300 302
280 280 279 279 278 278 278 279 277 277 277 278 277 276 276 275 277 277 275 276 276 276 276 276 276 278 276 275 275 275 276 276 276 275 275 276 275 276 276 276 277 277 277 278 278 278 278 278 278 278 278 278 279 278 278 278 278 279 279 280 280 281 282 282 283 285 286 287 287 288 287 289 290 291 292 292 292 292 287 288 291 292 291 295 300
279 279 279 279 278 278 277 277 278 277 276 275 276 275 275 275 275 275 275 275 276 276 275 275 276 276 275 275 275 275 275 275 275 275 275 275 275 275 275 276 276 276 277 277 277 277 277 278 278 277 278 279 278 277 277 277 278 279 280 280 280 279 279 279 281 284 286 286 286 287 288 287 288 288 290 290 291 290 290 290 292 293 292 293 296
279 278 278 278 277 277 276 277 277 277 276 275 276 275 275 275 275 275 275 275 275 276 275 275 275 275 275 275 275 275 275 275 274 274 274 274 274 274 275 275 275 276 276 276 276 276 277 277 277 277 277 277 277 277 277 277 278 279 279 280 279 279 278 279 280 282 284 284 285 287 288 289 290 290 291 291 290 290 291 290 291 293 294 295 299
278 278 278 278 278 277 276 277 277 276 277 277 276 275 274 275 274 274 275 275 275 275 275 275 274 275 275 274 274 276 275 274 274 273 274 274 274 274 274 274 275 275 275 275 275 276 276 276 276 276 276 277 277 277 277 277 277 278 278 278 277 277 277 278 280 283 284 284 284 286 287 288 289 292 292 291 292 291 290 288 290 293 292 293 296
278 278 278 278 279 278 278 278 277 277 277 276 275 276 275 275 274 274 275 274 275 274 274 274 274 274 274 274 274 274 273 274 274 273 274 274 274 274 274 274 274 274 274 275 275 276 276 276 276 276 276 277 277 277 277 277 277 277 277 277 277 277 278 280 282 281 281 282 284 284 285 286 288 291 292 292 291 291 290 290 290 291 293 292 295
278 278 278 278 279 279 278 278 277 277 276 275 274 274 274 274 274 274 274 274 274 274 274 274 274 274 274 274 274 274 273 273 273 274 274 273 274 273 273 274 274 274 274 275 276 275 275 276 276 276 276 277 277 277 277 277 277 277 277 277 277 278 279 281 281 280 280 281 282 283 284 285 287 290 292 292 293 293 293 292 291 289 290 292 292
277 277 278 278 278 278 277 277 276 276 275 274 274 274 274 274 274 274 274 274 274 275 274 274 273 273 273 273 273 274 275 274 273 274 273 273 273 273 273 273 274 274 275 275 275 275 275 275 276 276 276 277 277 277 276 276 277 277 277 277 276 278 278 279 279 280 281 282 282 283 284 285 286 289 292 293 294 294 294 294 293 292 290 289 292
277 277 278 278 277 277 277 276 276 275 274 274 275 274 274 274 274 273 273 273 273 274 273 273 273 273 273 272 272 272 272 271 271 272 272 272 273 273 273 273 274 274 275 275 275 275 275 276 276 276 276 276 276 276 276 276 276 276 276 276 276 277 277 276 276 277 278 280 282 283 284 285 286 288 291 292 292 292 293 294 295 293 293 291 290
277 277 277 277 276 276 276 276 276 275 275 274 274 274 274 274 274 273 273 272 273 273 273 273 272 272 272 272 272 272 271 271 271 271 272 272 272 273 273 273 273 274 275 275 275 275 275 276 275 275 276 276 276 276 276 275 275 275 275 275 275 276 275 276 277 277 278 280 282 283 284 284 285 287 289 292 291 292 293 295 295 295 295 293 293
276 276 276 276 276 276 275 275 274 274 275 274 274 274 273 273 273 273 272 273 273 273 272 272 272 272 272 272 271 271 271 271 271 271 271 271 271 272 272 272 273 274 274 274 274 274 274 275 275 275 275 275 275 275 275 275 275 274 275 275 275 276 276 276 277 279 280 279 279 279 281 282 283 284 287 290 291 290 292 294 294 295 295 295 295
276 276 276 276 276 276 275 275 274 273 273 273 273 272 272 272 273 273 273 272 272 271 271 271 271 271 271 271 271 271 271 271 271 271 270 270 271 271 271 272 272 273 273 273 273 273 273 273 274 274 274 275 275 275 275 274 274 274 274 274 274 275 274 275 276 276 277 277 277 278 279 280 282 284 285 288 290 292 293 293 294 294 295 296 296
276 276 276 276 275 275 275 275 274 272 273 273 272 272 272 272 271 272 271 271 271 271 270 270 271 270 270 269 269 270 269 270 270 270 270 270 270 271 271 271 272 271 272 272 272 272 273 273 274 274 274 274 274 274 274 273 273 272 273 273 273 274 273 274 275 275 275 275 276 277 279 281 282 281 283 286 290 291 292 292 294 294 294 295 295
276 276 276 275 275 275 274 273 271 271 272 272 271 271 270 270 271 271 271 270 270 270 270 270 270 270 269 269 269 269 269 269 269 269 269 269 270 270 270 270 270 270 271 271 271 272 272 273 273 273 273 273 273 273 273 273 272 271 271 272 272 272 273 273 274 274 274 275 276 276 276 278 280 280 281 283 288 291 291 292 293 293 293 294 296
276 276 276 276 276 275 274 273 272 273 273 272 271 271 271 270 270 270 270 270 270 270 270 270 269 269 269 269 269 268 268 268 268 268 268 268 269 269 270 269 269 270 270 271 271 271 271 272 272 272 272 271 272 272 272 272 271 271 270 271 271 272 272 272 272 272 273 274 274 274 275 276 278 279 280 283 287 290 291 291 292 293 292 294 295
275 275 275 275 275 274 273 273 272 272 271 271 271 270 270 270 270 269 269 270 270 270 270 269 269 269 269 268 268 268 268 268 267 268 267 268 268 268 269 268 269 269 269 270 271 270 271 271 270 270 270 270 270 270 270 270 270 270 270 270 271 271 272 272 272 272 272 273 272 273 274 275 277 278 280 281 285 290 291 291 291 292 293 293 295
274 274 275 275 274 273 273 273 273 272 272 271 271 270 270 269 269 269 269 269 269 269 269 268 268 268 268 267 267 267 267 267 267 267 267 267 267 268 268 268 268 269 269 269 269 270 269 269 269 268 268 268 268 268 268 269 269 270 270 270 270 270 271 272 272 272 273 272 272 272 273 275 277 278 279 280 283 287 290 290 291 292 292 293 294
274 274 274 274 275 274 273 273 273 272 272 271 270 270 269 269 269 269 268 268 268 268 268 268 267 267 267 266 267 267 267 267 267 267 267 267 267 267 267 268 268 268 268 268 268 268 268 267 267 267 267 267 267 267 268 268 268 269 269 269 270 270 270 271 271 272 272 272 272 272 273 274 276 278 279 281 284 287 289 290 290 291 292 292 292
275 275 275 275 273 273 273 272 272 272 271 271 270 269 268 268 268 268 267 267 267 267 267 267 267 266 266 266 266 266 266 266 266 266 266 267 267 266 267 267 268 267 266 266 266 266 266 266 266 266 266 266 266 266 266 267 267 268 268 268 269 269 270 271 271 271 272 272 272 272 273 274 275 276 278 280 282 285 288 288 289 290 291 291 291
275 275 275 274 274 273 272 272 271 271 270 270 269 269 268 267 267 267 267 267 267 266 266 266 266 266 266 266 266 266 266 266 266 266 266 266 266 266 266 266 265 265 264 264 264 264 265 265 265 265 265 265 265 265 266 266 267 267 268 268 268 269 269 270 271 271 272 272 272 272 273 273 274 277 280 282 285 286 287 288 289 290 289 288 288
274 275 275 275 274 273 272 271 271 271 270 269 268 267 266 267 267 266 266 266 266 266 265 265 265 265 265 265 266 266 266 265 265 265 265 264 264 264 264 264 263 263 263 263 263 263 263 263 264 264 264 265 265 265 266 266 266 267 268 268 268 269 269 269 270 270 271 271 272 272 273 273 274 277 279 280 282 284 285 287 288 287 286 286 287
274 275 275 275 274 273 272 271 271 270 269 268 267 266 266 266 266 266 265 266 265 265 265 264 264 265 265 265 265 265 265 264 264 263 263 263 262 262 262 262 262 262 262 262 262 262 262 262 262 263 264 264 264 265 267 271 272 269 269 270 270 270 270 270 270 270 270 271 272 272 273 276 277 278 279 281 282 283 285 286 288 287 286 286 286
275 275 275 275 274 272 272 271 271 270 269 268 266 266 265 265 265 265 265 265 265 264 264 264 264 264 265 265 264 264 263 263 262 262 261 261 261 261 260 260 260 260 260 261 261 261 261 262 262 263 263 264 265 266 270 272 273 275 272 271 271 271 272 271 271 271 270 271 272 274 275 276 278 279 279 282 283 284 286 288 290 289 288 287 285
275 275 275 274 273 272 272 271 271 270 268 267 266 265 265 265 265 264 265 265 264 264 263 263 264 264 264 264 263 263 262 261 261 260 260 260 259 259 259 259 259 259 260 260 260 261 261 262 263 263 264 264 265 269 272 273 274 275 275 272 272 272 272 272 272 272 272 273 273 273 274 275 277 279 280 282 284 286 287 288 289 289 289 289 289
275 275 275 275 274 273 272 271 270 269 268 267 266 265 265 265 264 265 264 263 263 263 263 263 263 263 263 263 262 261 260 260 260 259 259 258 258 258 258 258 258 259 260 260 260 261 262 263 263 263 264 264 265 270 272 273 274 275 276 275 273 273 272 272 273 273 273 273 273 273 274 275 277 280 281 282 284 285 287 288 289 289 289 289 289
276 276 276 275 274 273 272 271 270 269 267 266 266 265 265 265 264 264 263 263 263 263 262 262 262 262 262 262 261 260 259 259 259 258 258 258 257 257 258 259 259 260 260 261 261 262 263 263 263 263 263 264 264 268 272 273 274 275 276 276 274 274 273 273 273 273 274 273 273 273 273 274 276 278 281 284 285 286 286 286 287 287 286 286 288
276 276 275 275 274 273 271 269 267 266 266 266 266 265 265 264 264 263 263 263 262 262 262 262 262 262 261 260 260 259 258 258 258 258 257 257 257 258 258 259 259 260 260 261 261 261 261 262 262 263 263 263 264 270 272 273 274 275 276 277 274 274 275 275 275 275 274 274 274 275 274 274 276 278 281 283 284 285 285 286 285 285 286 286 286
277 276 276 275 273 272 270 267 267 266 265 265 265 265 264 263 264 264 263 261 261 260 262 261 260 260 259 260 259 258 258 257 257 257 256 257 257 258 258 259 260 260 261 261 261 262 261 261 262 262 262 262 263 270 271 272 274 275 277 274 274 274 275 274 274 275 275 275 275 275 275 275 276 277 279 282 283 284 285 285 285 285 286 286 286
278 277 276 275 273 271 269 267 266 265 265 265 265 264 263 263 262 262 261 261 261 260 260 260 259 259 259 259 259 258 257 256 256 256 256 256 257 257 258 260 260 260 260 260 260 261 261 261 261 261 262 262 263 267 271 273 274 275 275 273 274 275 275 275 275 275 275 275 275 275 275 275 276 277 280 283 285 285 284 284 284 285 285 286 286
277 276 274 272 270 268 267 266 265 265 265 264 264 263 262 262 262 261 261 261 260 259 260 259 259 259 259 258 258 257 256 256 256 255 256 257 257 258 259 260 259 259 259 260 260 260 260 261 261 261 262 262 264 267 271 272 273 275 275 273 273 273 274 275 275 275 275 276 276 278 277 276 276 278 282 284 285 284 282 283 284 284 284 285 285
275 273 270 267 266 266 265 265 265 263 264 264 263 262 262 261 261 261 261 260 259 259 259 258 259 259 258 257 256 256 256 255 255 255 256 256 257 258 259 260 260 259 259 260 260 260 260 260 261 261 265 264 263 265 270 271 273 274 274 273 273 273 273 273 274 275 276 276 276 277 279 279 278 279 282 283 284 284 283 283 284 284 283 284 285
272 270 268 267 266 265 265 264 264 264 263 263 262 262 261 261 261 261 260 259 259 259 259 259 258 258 257 256 256 255 255 255 255 255 256 257 258 258 259 259 259 259 259 259 259 259 259 260 261 262 262 263 263 264 266 272 274 274 275 272 272 271 271 272 274 275 275 275 276 276 278 280 282 283 283 284 285 285 284 284 284 283 283 283 286
269 268 269 266 266 266 265 265 264 263 263 262 262 261 260 260 260 260 259 259 259 259 257 257 257 256 255 255 255 254 254 254 255 255 257 257 258 258 258 258 258 259 258 258 259 259 259 260 261 262 262 263 264 265 267 272 273 273 274 274 271 272 272 272 273 274 275 275 276 276 277 280 282 283 284 285 285 286 286 285 285 284 284 285 287
269 268 267 266 265 264 264 263 263 262 262 262 261 260 260 259 259 258 258 259 258 257 256 255 255 254 254 254 254 254 255 255 256 256 256 257 258 258 258 258 258 258 258 258 259 259 260 260 261 262 262 263 266 269 267 270 272 273 274 275 272 272 273 273 273 273 274 274 276 277 278 280 282 283 284 284 285 286 286 285 285 287 287 287 286
266 266 266 265 264 263 262 262 262 262 261 261 260 259 259 258 258 258 258 258 257 256 255 254 254 253 253 253 254 254 255 255 256 256 256 256 257 257 257 258 257 258 258 258 259 260 260 261 261 262 263 264 266 266 269 268 271 272 274 274 275 274 276 274 272 272 273 273 275 276 278 281 282 283 283 284 285 286 286 285 287 287 287 288 287
266 266 265 264 263 262 261 261 261 261 261 260 259 258 258 257 258 258 258 257 256 254 253 252 252 253 253 253 254 254 255 255 255 256 256 256 256 256 257 257 258 258 259 259 260 261 261 261 261 262 263 264 266 266 268 270 269 272 273 274 275 275 276 273 273 272 273 273 274 275 277 280 282 283 284 284 285 285 285 286 287 287 287 287 286
264 264 264 264 262 261 260 260 260 259 259 259 258 257 257 257 257 257 257 255 254 252 251 251 251 252 252 253 253 254 254 254 255 255 255 255 255 256 256 257 258 259 260 260 261 262 261 261 261 262 263 264 265 265 265 267 271 271 273 274 274 275 275 276 272 272 273 273 275 278 279 280 281 283 284 285 284 285 286 286 287 287 286 286 285
264 263 263 262 261 260 259 258 259 259 258 258 258 257 255 257 257 256 256 254 252 250 251 250 250 251 251 252 252 254 254 254 254 255 255 255 255 256 256 257 259 260 260 260 261 262 262 262 262 262 263 264 265 265 265 266 268 269 271 272 273 274 274 274 274 272 275 276 277 278 279 280 281 282 284 283 283 283 285 286 286 286 285 285 285
263 263 262 261 260 259 258 258 257 258 257 257 257 257 257 256 256 255 255 253 250 250 251 250 250 250 251 252 252 253 254 255 254 254 255 255 255 256 257 258 260 260 260 261 263 262 262 262 262 262 263 264 264 264 265 265 266 268 269 270 270 270 272 273 271 271 273 273 274 275 276 279 280 282 284 285 284 285 285 285 285 285 286 286 286
263 262 261 260 260 259 258 258 257 258 257 256 256 256 256 255 255 254 252 250 251 251 250 249 249 251 251 251 252 256 255 253 254 254 254 254 255 256 257 259 259 260 261 262 263 262 262 262 262 263 263 263 263 264 264 265 267 268 268 269 269 269 269 269 270 271 272 274 274 276 277 277 279 282 284 284 284 284 285 285 285 285 285 286 286
261 261 261 261 260 259 258 258 258 258 257 256 255 255 255 255 255 253 251 251 251 251 250 249 250 250 250 253 252 251 252 252 253 254 254 254 255 257 259 259 261 262 264 264 263 263 264 264 264 263 263 263 263 264 265 271 269 272 269 268 268 268 269 270 272 275 273 273 274 275 275 276 278 280 282 283 283 284 284 284 285 285 285 285 285
262 261 261 261 260 259 258 258 257 257 256 255 255 255 255 255 253 252 251 249 250 250 249 249 249 249 250 251 251 250 251 252 251 252 253 254 259 263 262 261 260 265 268 269 269 265 266 266 265 265 266 265 264 265 271 272 272 272 272 272 272 272 273 271 273 274 274 272 273 275 275 276 278 280 281 282 283 284 283 284 284 285 285 285 285
261 260 260 260 259 259 258 257 256 256 255 255 254 254 253 254 253 252 250 249 249 249 248 248 249 248 251 252 250 250 251 251 252 252 252 252 253 255 262 265 265 266 267 268 268 269 270 270 267 265 267 271 271 271 271 271 272 272 272 271 271 271 272 272 272 268 268 269 270 272 274 276 277 279 281 282 284 284 284 284 284 285 285 286 286
Wind_Speed
6 8 8 9 9 8 6 6 6 4 4 4 4 4 5 4 4 4 3 2 2 2 2 1 2 4 2 2 5 5 5 4 5 4 4 5 2 1 2 2 3 3 4 4 5 6 6 6 7 7 7 7 8 8 9 10 9 9 9 9 12 14 11 8 9 8 11 14 11 13 15 12 14 14 15 16 15 14 13 13 13 13 13 14 15
5 7 8 7 7 6 5 6 8 7 5 5 6 7 5 3 4 4 2 3 3 3 2 1 2 1 1 5 4 6 7 6 6 6 6 5 3 3 4 3 4 5 5 4 5 5 7 7 7 7 7 7 8 8 8 9 9 8 8 10 7 11 12 8 8 7 9 10 13 14 14 13 11 14 16 16 15 13 13 14 14 14 15 15 14
9 11 9 9 9 8 7 6 7 9 9 8 6 3 4 4 5 4 3 3 4 3 2 2 2 2 2 4 3 5 5 5 5 6 5 5 5 5 5 5 6 6 6 6 5 5 6 7 7 7 6 7 7 7 6 8 8 10 10 10 11 8 10 9 9 7 12 10 10 12 15 15 12 8 9 11 12 12 12 13 15 16 17 15 13
16 16 15 11 10 8 6 7 8 6 6 5 4 6 4 5 4 4 4 3 3 3 3 3 3 3 3 4 5 5 6 5 5 5 4 3 5 4 3 3 4 6 6 6 6 6 6 7 7 7 7 6 8 9 8 8 8 8 9 12 11 13 9 9 7 9 9 9 10 8 10 9 16 13 4 6 7 8 8 10 11 14 14 14 12
15 13 12 12 11 11 10 9 7 8 7 7 6 6 5 6 5 4 4 4 3 3 3 2 2 2 3 4 5 5 4 5 5 5 5 3 3 3 4 3 5 6 6 6 6 6 6 6 7 8 8 7 7 8 8 8 8 8 10 11 12 10 13 12 10 10 12 11 12 10 10 10 12 15 11 11 9 10 11 9 7 11 13 12 12
15 17 17 15 14 9 8 7 9 8 8 8 6 6 4 4 3 3 3 3 4 3 3 2 2 1 2 4 6 4 7 7 7 9 9 8 8 5 5 4 4 5 5 5 5 5 5 6 7 8 7 7 7 7 8 8 8 9 9 10 13 12 12 13 14 11 12 14 16 17 13 12 10 8 9 15 5 7 10 11 13 13 11 10 8
10 10 12 13 12 11 9 9 9 9 9 6 5 4 3 3 3 3 3 3 2 2 2 3 2 2 2 2 3 3 4 4 4 5 6 6 4 6 6 5 5 6 6 6 6 6 6 7 7 7 7 6 7 7 8 8 8 8 8 8 10 11 12 13 15 13 11 12 14 17 17 15 13 10 12 12 18 12 8 7 9 9 9 8 8
14 15 16 13 13 14 14 11 10 10 8 6 5 4 5 4 4 3 2 2 2 2 2 3 2 2 2 3 3 3 3 6 6 6 5 4 6 7 6 6 6 5 7 6 6 6 7 8 7 7 7 7 7 7 9 9 8 8 8 9 10 11 14 15 15 12 11 11 11 12 14 14 14 16 16 15 15 16 19 10 9 11 9 10 10
15 14 16 17 17 14 11 11 10 8 6 8 7 6 3 2 3 2 2 2 2 2 2 2 3 2 3 3 4 4 5 6 6 5 5 4 6 6 6 6 6 6 6 7 7 7 7 8 7 7 7 8 7 8 8 9 10 10 9 9 11 12 12 13 12 13 12 13 11 12 13 13 13 14 14 13 11 13 16 17 13 7 8 10 9
12 14 14 15 13 11 9 9 9 9 7 6 4 3 2 2 3 3 0 2 2 2 2 2 2 2 3 3 4 5 4 5 5 6 5 4 6 7 6 6 6 6 6 6 7 7 7 7 7 7 8 8 8 8 9 10 11 11 11 11 13 14 12 13 15 14 13 13 12 12 12 12 14 14 15 14 14 17 19 19 12 11 13 13 9
12 13 13 12 9 10 9 11 10 8 5 6 5 4 3 2 2 1 1 2 2 2 2 3 2 2 3 3 3 5 6 6 7 7 6 6 8 8 7 7 7 7 7 7 7 7 7 7 8 8 8 8 9 9 9 10 11 12 13 14 15 13 12 15 19 19 14 13 13 12 13 15 14 15 13 12 12 12 13 16 11 9 12 17 14
11 11 12 13 11 10 8 10 10 9 6 6 4 4 4 3 2 1 1 2 2 2 2 3 2 3 2 3 4 4 5 6 7 8 7 8 8 9 8 8 8 8 7 7 7 6 7 8 8 9 9 8 9 9 9 10 11 12 13 12 14 16 16 16 17 19 17 13 14 13 13 14 14 15 14 12 11 12 12 15 11 8 10 11 12
12 14 13 14 17 16 14 11 10 9 9 8 6 5 4 3 1 0 2 2 2 2 2 3 2 2 2 3 3 4 5 6 6 7 7 7 8 9 9 9 9 9 8 8 8 7 8 8 8 8 9 8 9 10 10 11 13 13 14 16 16 16 15 17 16 16 14 14 13 12 13 14 14 15 16 15 12 12 12 16 15 9 14 12 8
13 14 15 17 18 16 14 13 11 9 8 7 5 5 4 3 2 2 3 2 2 2 2 2 3 2 2 3 3 4 5 5 6 7 8 7 7 9 9 9 10 10 10 10 8 9 8 9 10 10 10 11 11 11 12 12 13 13 15 15 16 14 15 17 12 13 14 16 14 14 14 14 15 15 16 15 14 12 13 15 14 10 12 14 8
10 12 15 18 18 16 14 12 9 8 7 6 5 4 4 3 3 2 2 2 1 2 2 2 3 3 2 2 3 3 5 5 6 6 7 9 8 9 10 9 10 10 10 10 10 9 11 10 10 11 11 11 12 12 12 13 14 14 14 14 14 13 15 14 14 16 17 19 19 16 14 14 15 14 15 17 16 13 13 12 11 13 12 12 12
10 12 13 14 13 11 10 9 7 7 6 5 5 5 4 4 3 3 3 2 2 2 2 2 3 2 2 3 4 4 5 5 6 6 7 8 10 9 10 10 10 10 10 10 11 10 11 11 11 12 12 11 12 13 14 12 12 13 14 14 15 12 14 15 14 14 15 17 17 17 15 15 14 15 15 15 14 12 11 11 11 13 15 14 9
12 14 14 13 9 9 8 8 7 6 6 6 6 6 6 4 3 2 2 2 2 2 2 2 3 3 3 3 4 4 5 6 7 9 9 9 9 9 9 10 11 10 11 10 11 11 11 11 12 12 12 13 12 13 13 14 14 13 14 15 15 13 15 16 16 18 17 17 15 17 15 14 14 15 15 14 13 12 10 10 10 14 13 14 10
10 8 7 8 8 8 7 6 8 8 7 6 6 5 4 4 4 2 1 2 2 2 2 2 2 2 3 3 3 4 5 6 7 9 9 9 9 9 9 10 10 10 11 11 11 13 12 14 13 14 15 14 12 13 14 15 15 14 15 16 16 16 16 15 16 16 17 16 16 13 12 12 12 13 15 15 13 12 11 10 11 12 13 13 13
11 13 12 11 12 11 10 9 7 6 6 6 6 6 4 3 3 3 2 3 3 2 2 1 1 2 2 3 4 5 5 6 7 8 8 9 10 10 10 10 11 11 11 12 12 13 13 14 13 14 13 15 16 15 15 15 15 14 13 14 14 15 15 16 15 13 11 11 13 15 12 12 12 15 15 16 12 11 9 8 10 11 12 12 13
13 13 13 13 12 12 11 11 10 9 7 6 6 5 5 5 3 2 2 3 2 2 2 3 2 2 4 3 3 4 6 7 8 8 9 10 10 10 11 11 11 11 11 13 13 14 14 14 13 14 16 13 16 16 14 15 13 14 13 14 14 16 17 18 17 16 12 13 15 16 17 15 14 13 14 16 13 11 9 9 10 12 12 12 12
14 14 13 13 12 11 10 9 8 5 5 6 6 7 5 4 3 2 3 3 2 2 2 2 2 2 3 4 5 5 7 7 8 8 10 10 10 11 10 10 11 12 12 14 13 14 15 15 16 16 15 16 15 16 14 13 13 14 14 15 17 17 19 17 16 18 16 16 18 19 17 14 13 14 14 14 14 12 10 9 9 10 12 12 11
13 13 12 12 11 10 9 7 5 6 7 7 6 5 4 4 3 2 1 2 2 2 2 3 2 3 4 5 6 5 6 7 9 10 10 10 10 10 11 11 13 13 12 14 15 14 14 16 16 17 16 17 16 17 17 14 14 15 15 13 14 18 19 19 17 17 18 16 15 16 16 16 14 14 15 16 16 12 10 10 10 11 11 11 11
12 12 12 12 12 10 10 9 9 9 9 7 6 5 4 3 2 2 2 3 2 3 2 2 4 4 5 5 6 7 8 8 9 9 9 10 10 11 10 13 13 13 12 13 14 15 16 16 17 17 18 16 18 16 15 15 17 17 16 15 15 17 19 19 19 19 18 17 18 17 17 15 14 15 15 15 15 14 10 11 12 10 13 12 11
8 8 8 9 8 8 8 9 9 8 7 7 6 4 3 2 2 2 3 3 2 2 2 2 4 4 5 7 7 7 7 8 9 8 10 10 11 11 11 12 13 13 14 14 14 15 16 16 17 18 17 19 18 17 17 16 17 18 16 17 16 16 17 19 19 19 17 17 19 19 18 15 15 15 15 14 15 13 11 10 11 11 11 12 11
10 12 13 10 9 12 12 10 9 8 6 5 5 4 3 2 2 3 3 3 2 2 2 3 4 6 7 7 8 7 8 8 9 9 11 11 11 11 11 12 12 13 13 13 14 14 15 16 16 18 19 18 19 18 19 19 17 17 17 18 18 18 18 18 19 18 19 19 19 19 19 17 17 16 14 14 13 15 10 9 10 9 11 12 11
14 12 11 16 16 9 7 8 7 7 7 6 4 4 3 3 3 2 2 2 2 1 2 3 4 6 7 8 7 8 9 10 10 10 11 11 11 11 12 12 12 14 14 14 15 15 14 17 18 18 19 19 18 18 18 19 19 18 17 17 17 18 19 19 19 19 19 18 19 19 19 18 17 17 15 14 14 13 11 9 9 8 9 9 11
17 18 16 9 7 13 10 7 7 6 6 5 5 5 4 4 3 2 1 1 1 2 2 4 5 6 7 8 8 7 8 9 9 10 10 11 12 11 11 12 12 13 14 16 16 16 16 16 18 18 18 19 19 19 19 19 19 19 19 19 19 19 19 17 17 17 18 17 19 19 19 17 18 18 17 15 15 14 11 11 10 10 9 10 11
9 10 13 17 16 9 9 9 7 7 6 5 4 5 4 4 3 2 0 0 1 2 4 5 5 6 7 9 8 8 8 9 9 9 11 11 11 11 12 12 12 14 14 15 16 17 17 16 17 18 19 18 19 19 19 19 18 18 18 18 18 18 18 18 17 17 17 17 19 19 19 19 19 19 15 15 14 13 11 12 10 8 7 6 6
14 16 16 15 14 13 11 10 9 8 8 7 6 5 4 3 2 0 0 1 1 3 4 5 6 6 7 8 8 8 8 8 9 10 9 10 10 11 11 12 12 13 13 14 15 16 17 18 18 18 19 18 17 17 15 15 16 17 17 18 18 18 18 17 17 17 17 17 17 18 19 19 21 26 30 26 23 20 13 9 7 7 8 8 9
17 18 17 15 13 11 11 11 10 10 9 8 6 5 4 3 2 1 0 1 1 3 4 4 5 7 7 7 8 8 8 9 9 10 10 10 11 11 11 12 13 13 13 13 14 15 16 17 19 19 18 16 16 14 19 28 25 19 18 16 15 15 16 17 17 17 16 16 17 17 18 27 29 30 30 31 30 31 30 22 11 9 8 9 9
16 15 15 14 12 11 11 12 12 11 10 9 7 6 5 3 2 2 0 0 1 2 3 4 6 6 7 7 7 7 8 9 9 9 9 11 12 11 12 12 12 12 12 12 13 15 15 16 18 19 19 17 15 15 27 27 28 30 23 19 17 16 15 15 13 14 14 15 15 17 18 21 24 26 25 32 31 31 29 29 25 19 15 12 10
17 17 15 14 14 15 15 14 12 11 10 9 8 8 6 4 3 2 1 1 1 1 4 5 6 6 6 6 7 8 8 8 9 10 11 11 11 11 11 12 12 13 12 11 13 14 14 16 16 17 18 17 17 22 29 28 29 29 27 20 17 16 15 15 16 17 15 15 17 18 17 15 16 18 18 19 23 27 30 29 28 25 26 26 21
17 17 18 18 18 17 15 12 11 11 10 9 9 7 5 4 4 2 1 0 1 2 3 5 5 4 5 6 6 7 7 8 9 10 10 10 11 11 12 12 13 12 12 13 12 14 15 14 15 18 18 18 18 24 27 29 29 30 30 25 17 17 16 16 17 17 15 16 15 16 16 14 14 25 22 18 16 16 22 27 26 26 26 27 25
15 17 18 17 13 11 11 13 12 10 9 9 7 6 5 4 4 2 1 1 1 3 3 5 4 4 5 5 5 5 7 8 9 10 9 10 11 11 11 11 11 12 12 13 13 14 14 15 17 18 18 18 19 23 29 29 29 30 31 27 17 18 16 16 16 17 16 16 15 17 16 16 16 17 16 15 13 13 11 11 13 13 12 15 20
16 16 16 16 17 13 12 11 12 12 9 8 7 6 5 4 4 2 2 3 2 3 3 4 4 5 4 3 5 6 7 8 9 9 10 10 10 11 11 10 10 11 11 11 13 15 14 15 16 16 17 18 17 28 29 31 30 30 30 27 16 16 14 13 14 16 16 16 16 16 18 19 17 17 15 15 11 11 12 12 12 12 12 11 11
16 19 19 19 18 19 17 14 10 9 8 7 7 6 5 4 3 3 2 2 3 3 4 3 4 3 3 4 4 6 7 8 10 9 10 11 11 10 12 12 10 10 10 11 11 12 14 15 14 16 17 19 19 28 30 31 32 30 31 18 15 15 13 12 11 14 15 15 15 16 17 17 17 19 22 27 24 16 12 11 12 12 11 11 11
16 18 18 15 13 14 15 13 9 9 9 8 7 6 5 4 3 4 3 3 2 3 3 3 3 2 3 3 5 6 7 8 9 10 11 11 12 12 11 9 11 11 12 12 12 11 11 13 15 15 17 18 18 24 29 31 30 30 24 14 14 12 11 13 13 14 14 15 17 18 18 17 17 17 24 29 28 24 14 14 13 12 11 10 12
11 10 11 13 13 14 12 11 12 10 8 8 7 7 6 5 5 4 3 3 3 2 2 3 3 2 4 4 5 5 6 8 9 10 11 11 10 9 9 9 11 12 13 12 12 12 11 12 14 16 15 18 18 24 30 29 29 29 24 16 14 13 14 13 14 14 11 13 17 28 24 19 18 17 21 25 25 20 15 14 13 12 13 14 14
16 20 18 17 17 15 12 11 11 11 9 8 8 7 6 5 5 4 3 4 2 1 2 2 3 3 4 4 4 5 6 7 8 10 9 11 11 10 10 9 9 10 11 11 11 12 12 12 12 15 22 22 18 21 29 29 29 28 22 14 13 12 13 12 12 11 11 12 12 16 25 23 21 21 29 28 29 23 15 13 12 12 14 16 14
12 13 17 16 15 15 12 11 11 11 10 9 8 7 6 5 4 4 4 3 1 1 2 4 4 4 3 4 3 4 6 7 9 10 9 9 10 10 10 10 10 9 10 10 10 11 13 13 13 14 14 15 17 18 21 28 26 27 28 18 13 12 13 13 13 12 12 11 12 13 16 24 28 29 29 30 29 28 18 13 12 13 15 18 10
17 16 14 13 11 11 12 12 10 11 9 8 7 7 6 5 5 5 3 2 1 1 2 2 3 3 3 4 4 3 7 8 8 9 9 9 8 10 11 11 11 10 10 11 12 12 12 13 12 13 14 16 15 17 17 25 28 29 29 24 13 13 13 13 13 13 10 11 12 12 12 19 25 26 27 28 27 26 23 14 13 14 14 13 11
10 16 13 11 11 11 11 10 9 10 9 8 8 7 6 5 5 3 2 1 1 1 2 2 3 3 3 4 4 6 6 7 8 8 8 9 8 9 10 10 10 10 12 13 12 12 12 13 12 13 13 13 15 21 17 23 28 28 27 29 17 15 17 15 14 13 12 12 13 12 12 17 23 24 25 26 27 25 26 16 14 17 20 19 16
16 12 8 13 12 12 10 11 9 9 8 7 7 8 6 5 4 3 2 1 1 1 2 2 3 4 5 5 5 6 8 6 7 8 8 9 9 9 10 10 10 11 11 12 13 12 13 14 12 10 9 14 16 15 23 21 26 27 27 26 28 23 26 18 13 13 14 14 13 14 15 22 24 24 25 26 26 28 23 15 18 21 23 24 17
7 9 12 10 12 11 11 10 9 8 7 7 8 8 6 5 4 3 2 1 0 1 1 2 3 4 6 6 6 7 7 7 7 8 8 8 9 9 9 9 9 10 10 12 12 13 12 12 13 13 13 11 13 14 19 25 22 27 27 29 28 28 28 18 16 14 14 14 14 14 14 22 22 23 25 25 26 24 16 17 20 23 23 19 11
15 13 11 8 13 15 12 11 8 9 6 6 5 7 7 5 4 3 1 1 0 0 0 2 5 5 6 7 7 6 6 6 7 7 8 8 9 8 9 9 8 9 10 12 12 12 12 12 13 13 11 11 12 15 17 19 26 27 29 27 27 29 27 27 17 13 14 14 19 26 28 27 26 25 27 27 23 23 26 23 23 23 19 10 10
11 11 9 10 10 11 12 13 10 8 7 6 5 5 7 6 5 3 2 0 0 0 2 4 5 5 6 7 9 9 6 5 6 7 7 7 8 9 9 9 9 9 10 13 13 12 13 13 13 15 15 17 18 13 14 15 17 21 20 26 30 27 25 26 24 19 24 27 26 26 28 27 22 19 15 12 11 12 17 19 21 20 11 10 9
15 11 14 13 13 12 11 12 12 8 7 6 6 4 5 6 5 3 2 1 0 2 4 5 6 5 5 5 7 8 9 8 5 5 7 7 7 8 8 9 8 9 8 8 10 13 14 14 14 14 14 14 13 12 16 16 13 11 13 17 18 16 21 22 15 12 13 12 15 16 14 20 20 25 22 16 15 15 13 11 10 10 9 9 9
9 13 11 10 10 13 13 12 11 9 8 7 6 6 6 6 5 4 3 2 2 4 5 5 5 4 5 6 6 9 9 9 8 7 6 6 7 7 8 9 10 10 11 11 12 15 14 9 8 11 14 16 13 10 12 13 15 15 15 15 14 15 13 11 12 12 12 13 12 15 16 12 11 10 7 6 8 8 9 8 8 8 8 9 10
13 13 13 13 12 12 12 13 10 9 9 7 7 6 6 5 5 4 4 4 6 5 6 5 5 4 5 4 5 4 6 7 9 10 8 4 6 7 7 8 10 9 11 12 11 10 11 12 13 13 13 8 12 12 12 24 23 26 22 18 15 14 13 12 16 24 18 13 11 10 9 9 9 8 6 5 6 7 8 8 10 9 9 9 8
8 9 12 15 13 15 13 12 10 9 8 8 8 6 5 5 4 4 4 5 6 6 5 6 4 3 5 5 5 5 4 6 6 8 11 13 10 11 9 8 8 17 22 22 19 13 14 13 12 12 12 15 13 15 31 34 33 32 32 30 25 25 25 21 25 28 18 10 8 7 6 8 9 7 7 5 5 6 7 7 8 9 10 9 8
13 15 15 16 13 13 12 11 10 9 8 8 8 6 5 5 5 4 5 7 5 6 5 5 3 2 5 4 5 5 5 5 5 6 6 8 13 14 14 17 19 20 21 22 22 23 25 26 18 14 15 29 30 32 34 33 33 32 31 30 28 25 27 27 28 17 13 13 12 10 8 8 9 9 8 6 6 5 6 6 7 7 7 8 8
Wind_Direction
187 198 194 192 194 194 179 170 171 172 177 173 168 193 196 196 174 226 224 228 229 228 251 242 310 329 331 295 292 300 297 289 274 267 274 279 285 292 322 309 307 311 320 332 330 330 324 318 319 320 318 315 309 301 297 293 288 285 289 288 291 289 278 266 270 275 285 286 274 273 279 265 266 269 266 264 256 254 252 251 248 246 244 247 250
180 211 210 204 201 195 181 180 163 163 201 182 190 197 195 192 197 225 227 232 230 219 221 223 199 197 257 285 291 302 307 309 310 320 311 309 316 330 336 330 324 323 322 326 323 320 317 315 310 304 306 297 288 283 283 282 289 288 291 290 275 289 290 285 280 291 275 277 302 300 283 275 263 261 255 254 250 251 252 250 245 241 240 242 244
198 209 202 200 201 197 188 189 190 184 178 189 196 185 209 208 214 222 224 211 229 224 203 224 221 250 209 260 255 280 264 254 258 271 292 303 312 333 335 332 328 321 314 311 308 307 303 303 297 294 289 289 291 288 289 296 295 294 289 285 295 275 279 284 280 257 276 279 276 293 289 313 291 251 256 252 252 244 245 246 246 242 238 235 238
200 198 198 196 197 195 195 195 195 186 182 194 207 210 210 211 211 211 225 221 234 234 216 215 226 245 250 251 262 236 254 265 268 273 276 289 305 314 305 296 298 295 297 296 297 297 294 290 291 291 290 290 293 296 295 291 291 290 289 283 280 290 283 278 265 265 258 275 275 235 279 291 298 283 310 287 259 267 264 262 251 249 247 236 234
199 196 195 193 196 200 195 196 180 184 191 199 199 203 199 204 204 197 211 219 224 231 225 221 251 276 270 268 245 258 263 252 249 250 228 243 275 293 290 274 268 267 269 264 262 268 268 269 279 285 287 287 287 287 290 289 290 286 286 285 286 294 301 297 287 268 257 244 258 276 276 265 253 286 324 280 271 266 256 264 288 277 252 242 233
199 195 193 192 192 191 201 189 183 190 194 205 198 203 190 204 193 208 218 230 232 227 208 197 217 233 308 329 334 332 325 329 330 327 327 332 322 309 294 281 273 268 264 264 254 258 262 267 272 277 278 282 284 286 286 287 281 281 280 287 287 282 278 289 286 280 266 251 242 247 247 259 278 289 322 292 284 247 285 277 271 268 283 288 265
200 195 193 192 193 189 194 193 189 185 205 196 196 204 201 206 193 192 208 227 228 239 202 208 215 211 234 240 235 251 270 264 250 267 274 283 284 295 294 295 286 282 283 276 275 272 280 280 275 273 274 278 286 288 286 280 278 272 279 282 291 298 291 281 281 284 283 266 250 242 245 249 256 269 269 294 286 286 241 255 263 260 263 273 277
194 195 194 194 189 189 187 191 188 192 191 181 194 202 205 200 166 185 211 228 237 242 219 205 219 238 253 257 259 260 243 270 274 267 258 268 287 286 287 282 280 274 277 272 268 275 278 278 276 280 282 281 285 285 284 283 278 272 269 278 285 281 276 271 271 275 280 284 284 268 256 257 254 253 250 254 275 286 288 261 259 275 265 253 255
193 192 192 190 192 192 185 186 194 189 177 182 193 196 187 165 156 171 212 230 251 247 252 220 225 230 235 255 282 267 263 270 275 270 275 274 278 283 280 280 277 270 262 267 268 269 273 276 278 279 284 287 286 285 281 280 277 277 274 272 272 273 269 273 283 281 280 281 286 282 277 266 258 250 248 245 250 277 275 278 281 260 248 249 245
200 200 192 192 192 189 191 182 183 193 190 181 172 148 171 164 151 158 242 231 248 273 244 248 230 231 255 262 271 285 285 290 275 285 290 290 289 288 285 284 282 279 271 265 271 269 273 273 276 281 284 285 284 281 285 285 285 279 272 268 268 270 279 283 278 276 274 274 271 279 277 274 265 257 246 243 248 243 258 269 272 287 288 275 251
197 194 192 190 187 190 184 184 187 187 178 177 177 170 163 161 160 141 222 243 246 252 237 254 242 230 247 261 273 294 302 295 304 306 310 309 302 299 297 292 285 281 278 272 268 274 272 275 280 281 281 281 281 280 278 280 281 279 276 273 271 274 278 278 274 268 264 265 270 269 266 262 258 251 244 240 246 259 275 274 278 263 264 278 270
191 186 186 183 189 202 190 193 185 182 177 181 177 158 157 169 163 139 218 238 237 236 238 249 243 255 253 267 285 292 294 296 300 303 306 301 298 298 299 294 289 284 277 278 273 272 277 278 278 281 279 277 275 274 275 277 280 280 277 274 275 277 276 273 267 265 259 270 273 270 270 269 259 252 251 245 241 251 256 272 276 293 275 263 281
190 191 186 188 193 191 196 193 184 181 183 185 174 160 156 167 168 159 262 225 238 229 240 254 257 270 279 288 296 295 291 289 292 293 296 297 300 297 297 293 293 290 286 282 283 282 283 284 282 278 279 272 272 274 274 273 276 276 275 274 275 274 272 267 261 260 265 261 266 274 276 276 272 262 251 249 244 248 251 266 264 258 272 274 270
196 191 193 194 195 195 191 186 184 179 179 175 164 157 166 170 180 196 252 234 242 243 244 266 275 279 286 290 294 290 285 285 289 295 299 297 294 292 291 290 291 285 290 285 286 286 279 276 278 276 273 275 272 270 271 271 271 271 270 271 270 270 268 264 271 286 285 284 282 277 275 277 277 268 256 247 244 239 245 250 268 258 256 265 256
198 200 201 199 198 192 188 184 177 172 170 165 158 163 162 185 185 211 247 242 233 258 263 282 293 293 290 279 277 276 279 285 292 296 299 299 294 289 286 287 285 288 286 288 287 283 280 276 274 272 272 271 272 271 272 273 271 271 271 269 271 268 265 263 267 274 278 277 276 274 276 276 277 276 260 245 241 235 240 253 263 272 265 254 253
203 207 209 209 201 190 185 180 171 165 168 158 163 165 175 194 197 206 224 254 253 263 259 252 273 272 281 288 282 281 289 299 300 297 290 287 288 286 286 285 284 287 287 287 285 282 280 279 276 272 269 264 266 268 272 271 271 273 273 271 268 266 271 274 276 270 265 269 272 272 271 272 277 274 262 249 242 240 237 250 254 254 265 273 257
203 206 206 201 192 195 186 171 166 165 163 178 178 178 179 186 197 214 225 231 242 255 260 270 273 300 300 286 284 292 299 302 299 294 290 287 285 286 285 286 287 285 286 286 287 283 280 278 278 273 269 267 264 266 266 269 271 271 272 273 272 276 277 276 274 269 265 263 261 266 272 276 278 281 275 256 247 246 240 244 247 255 257 264 265
207 211 207 197 195 187 180 180 174 175 178 174 173 174 182 183 193 208 225 256 254 240 258 254 291 299 291 289 294 300 301 296 289 287 290 290 287 287 286 288 287 288 287 286 285 284 283 281 279 277 276 269 259 259 262 265 268 269 268 268 268 268 266 265 264 264 259 254 255 261 271 279 280 283 279 262 244 243 243 237 245 250 252 257 263
201 203 195 191 190 186 183 179 179 177 175 167 156 161 173 196 206 193 224 236 246 265 271 283 273 280 287 305 312 309 299 292 288 288 291 291 292 291 291 289 289 289 287 287 286 285 283 282 280 278 275 277 274 269 266 265 263 263 265 268 267 266 266 267 262 259 274 289 290 285 280 276 279 280 280 270 250 241 245 249 251 249 254 257 253
203 200 198 193 187 184 181 178 177 179 177 173 158 160 182 195 189 208 229 248 273 282 297 311 306 290 300 307 300 290 289 287 291 296 295 294 293 294 294 293 290 290 288 286 285 283 283 283 281 280 281 277 278 274 267 264 262 263 265 267 267 267 267 266 267 272 279 280 281 277 271 268 268 274 280 277 255 240 234 238 243 250 250 252 264
204 199 193 189 185 182 184 179 173 160 161 155 163 173 183 171 191 211 220 262 260 267 279 282 282 288 308 307 301 297 295 294 297 296 294 293 295 295 294 294 294 288 288 285 283 283 284 282 282 278 279 281 280 278 272 264 263 264 265 265 267 265 267 267 270 268 269 273 270 263 264 265 273 276 279 280 264 243 237 235 241 250 252 248 247
203 196 187 185 183 181 178 168 142 158 160 166 171 153 163 187 198 208 230 262 275 296 273 287 300 317 311 302 300 301 300 303 301 297 291 293 295 296 296 295 289 287 285 285 286 285 283 283 281 281 282 282 280 280 277 269 263 263 265 263 263 265 265 265 264 267 270 271 277 287 284 281 274 274 275 275 268 253 242 241 242 242 245 249 239
199 193 192 190 186 178 173 168 170 173 172 168 163 169 175 187 192 220 228 259 253 266 276 306 322 319 307 303 307 304 302 290 284 280 281 285 288 289 288 285 283 284 283 282 286 288 286 285 283 282 284 282 281 277 278 275 272 268 265 264 262 263 264 264 264 266 270 272 273 274 277 276 274 272 272 273 272 255 244 246 245 239 243 242 241
197 191 195 189 177 170 169 177 175 171 167 174 170 161 157 173 197 210 235 253 246 256 308 328 306 300 307 308 307 295 281 283 282 283 285 288 286 281 278 278 282 285 289 291 288 290 290 287 287 285 283 284 281 279 278 274 272 272 270 268 266 262 261 262 262 265 266 269 272 273 270 270 268 265 266 272 274 259 237 238 244 244 247 246 242
189 193 192 182 181 185 187 177 172 169 168 162 160 163 157 188 194 219 239 239 264 315 336 312 307 320 323 321 310 296 286 284 286 287 286 285 283 282 281 282 289 290 291 295 296 296 294 291 288 287 287 283 280 280 279 277 272 269 270 270 269 268 265 263 263 264 264 265 268 267 271 272 271 267 265 265 262 263 246 240 243 246 248 246 243
194 190 182 192 195 180 171 177 169 166 163 160 160 156 166 183 206 208 232 257 312 343 309 318 331 330 324 311 298 298 296 292 291 290 289 288 285 284 289 290 293 295 301 301 300 299 295 292 289 288 285 283 281 279 278 276 275 272 271 270 268 266 265 264 264 263 262 262 266 267 267 265 263 263 265 268 270 260 249 240 242 249 256 258 256
192 190 192 181 170 191 181 165 165 160 157 159 160 169 173 180 199 211 214 290 308 319 325 339 341 331 316 310 300 288 292 296 296 292 289 292 291 290 295 300 304 303 304 304 301 297 294 292 291 289 286 285 283 281 278 275 273 271 270 269 267 265 266 265 263 262 261 263 267 267 265 264 264 262 263 261 261 262 258 252 243 249 253 256 253
193 187 186 194 193 171 167 169 160 160 156 156 160 161 173 177 200 203 236 278 314 339 339 347 340 323 309 300 297 298 299 300 292 287 287 293 297 302 307 306 307 305 304 302 301 298 295 292 290 289 287 285 283 281 278 275 273 271 268 266 264 266 266 266 265 262 262 263 266 267 267 265 265 262 253 251 251 252 249 243 235 229 244 261 278
194 198 196 192 185 179 169 166 167 159 165 159 157 165 168 191 177 185 112 319 355 340 345 341 328 311 300 296 300 302 294 293 294 296 299 303 308 308 308 307 307 305 302 299 297 296 294 294 291 287 287 284 282 280 278 276 274 271 267 264 262 260 259 261 262 262 259 258 257 259 261 261 259 259 265 268 268 267 270 263 236 225 236 249 260
199 198 197 192 181 165 167 165 168 171 165 164 169 171 181 179 176 172 287 341 25 350 342 323 310 299 296 298 301 301 298 298 302 310 313 314 314 316 316 313 310 305 302 298 295 291 289 290 292 291 287 284 281 279 277 278 276 274 271 266 261 256 253 249 252 257 258 256 256 257 259 259 260 260 259 258 256 256 254 250 241 219 222 239 246
203 198 195 185 172 166 166 172 176 171 169 167 167 170 168 170 171 169 171 9 31 344 315 306 295 291 294 299 299 299 301 304 313 316 319 322 321 319 314 309 306 303 299 297 292 290 288 287 289 289 288 285 282 280 282 282 281 278 276 274 272 270 264 261 252 250 251 254 256 262 267 263 261 260 258 256 253 251 249 246 241 236 232 228 236
199 196 187 178 175 177 177 177 171 166 162 162 165 164 164 170 165 160 155 51 22 305 292 285 281 287 295 297 294 298 306 313 323 326 324 321 316 314 312 310 307 306 302 297 292 283 281 284 288 290 289 288 285 285 286 287 284 282 280 277 275 273 270 266 256 256 255 263 267 270 268 270 269 262 254 251 251 248 246 242 238 237 235 229 227
195 190 188 184 183 181 174 164 162 163 164 167 155 152 166 165 157 162 119 105 255 265 273 274 280 285 283 285 290 307 317 325 330 326 320 316 315 314 314 312 309 304 299 296 289 288 283 291 296 298 297 295 292 291 290 289 288 285 282 280 277 272 267 266 269 265 257 266 267 270 270 267 265 268 268 260 255 250 244 240 236 233 230 226 226
195 191 185 181 171 166 166 165 160 155 150 135 147 152 153 147 140 142 144 208 221 253 255 267 270 269 276 292 307 317 325 328 326 321 319 318 317 313 309 304 302 303 301 298 298 302 308 306 304 300 299 298 295 297 295 293 290 287 284 283 277 273 259 257 254 257 253 255 255 264 266 266 266 267 264 256 248 247 245 232 228 224 220 222 228
186 182 179 177 173 162 148 148 145 138 138 141 144 148 142 137 142 145 184 207 231 245 263 256 264 266 276 296 321 332 332 328 325 320 319 316 313 309 309 309 307 305 305 307 312 312 307 305 306 305 303 300 299 299 298 297 297 295 291 289 283 278 268 264 260 256 249 247 248 248 257 261 265 267 265 268 261 249 240 234 227 225 222 225 224
187 180 179 173 171 167 160 141 128 129 140 145 146 145 137 139 147 173 195 217 225 241 253 254 268 270 300 330 332 333 332 326 324 321 318 316 314 312 312 312 308 306 304 302 301 302 303 304 304 304 304 302 299 300 300 299 297 296 294 290 279 272 263 256 255 258 259 253 252 255 257 254 255 261 265 265 264 263 255 245 237 234 235 232 234
185 179 174 165 151 142 131 119 128 134 141 146 144 139 132 137 155 201 199 227 218 234 245 266 268 286 323 332 336 335 328 323 321 319 316 314 315 316 312 310 309 309 308 307 305 304 304 303 303 301 299 298 299 302 304 302 301 301 301 294 291 285 268 257 251 245 246 251 259 259 256 255 251 253 259 264 263 260 255 255 253 251 247 247 249
143 128 125 131 131 109 105 125 131 136 138 140 140 136 138 153 178 189 196 216 205 227 248 267 281 316 334 333 332 331 325 321 316 312 310 308 307 302 306 311 311 311 310 307 306 303 301 300 301 300 297 302 305 305 307 306 305 303 302 302 302 295 285 273 257 243 233 242 251 258 253 248 251 254 258 260 263 265 266 260 257 255 254 252 252
149 148 142 135 124 121 123 121 130 135 147 144 138 136 146 164 175 184 197 196 199 225 270 287 315 336 322 320 324 329 318 309 304 301 304 306 307 310 307 308 303 302 301 302 303 302 300 300 296 296 303 307 301 301 302 302 301 303 306 302 298 296 301 300 284 252 241 248 252 256 256 251 246 246 251 254 256 254 252 250 252 254 255 254 253
121 117 105 113 120 121 126 135 143 146 145 141 140 144 154 159 175 178 190 172 153 270 313 322 324 314 305 315 327 320 308 300 297 298 298 297 301 307 311 311 306 302 303 302 301 300 300 299 299 299 300 299 296 295 294 299 307 312 314 311 306 304 300 300 299 283 277 253 246 252 256 257 256 252 250 249 249 248 245 242 242 246 249 255 257
130 133 131 126 128 131 137 141 140 141 140 139 140 140 155 165 172 185 157 133 21 330 320 323 310 305 312 323 325 310 301 296 288 290 293 298 305 309 311 310 309 307 302 302 302 301 300 298 300 299 298 298 290 293 300 311 313 311 309 309 302 299 301 299 298 295 280 269 254 247 249 250 253 255 252 250 248 247 248 244 242 244 246 257 263
105 133 130 121 117 117 119 121 131 136 136 141 147 149 148 161 184 153 118 95 27 336 327 299 309 307 315 327 320 310 295 289 293 292 299 304 305 305 304 307 307 307 306 305 306 303 304 304 305 303 293 286 298 308 310 309 309 309 310 309 309 304 302 302 302 301 299 296 288 275 259 255 255 255 256 256 255 254 254 251 245 248 252 251 252
138 134 136 130 125 130 132 132 136 133 138 144 144 136 147 181 148 125 117 84 4 333 320 301 307 328 344 334 322 308 303 297 297 300 304 308 309 310 308 307 306 306 306 308 310 311 312 314 312 307 305 313 312 313 311 308 308 309 309 309 307 306 306 306 301 295 294 290 288 286 280 270 264 261 260 259 258 256 254 248 249 250 251 248 245
104 123 141 127 115 125 125 129 133 137 139 145 144 135 163 152 123 116 124 102 304 326 292 312 344 359 345 335 319 309 300 298 299 306 310 308 312 312 311 308 305 309 315 320 320 322 320 318 320 317 315 311 316 316 313 311 309 308 310 309 308 308 307 303 300 295 294 287 285 282 279 283 279 271 265 261 259 257 250 250 250 252 250 247 240
145 148 146 133 133 135 129 126 130 131 130 125 128 141 154 124 126 118 121 107 303 269 306 14 21 6 351 327 317 307 303 299 304 311 315 318 315 317 314 310 308 315 321 325 320 325 328 323 320 317 312 315 321 319 314 311 312 310 307 308 311 309 306 306 302 293 285 283 280 281 283 283 281 279 271 261 258 258 256 254 251 248 244 231 231
118 128 141 129 113 115 123 127 130 133 125 122 129 150 136 132 131 116 114 84 210 62 55 41 27 15 345 330 319 316 312 310 312 312 310 310 310 316 315 309 316 322 324 324 322 331 330 327 323 320 314 322 322 316 319 318 311 298 300 312 313 311 307 305 302 293 290 287 286 287 288 287 285 286 278 252 244 247 251 247 247 244 235 227 220
152 147 133 131 134 126 129 130 131 137 129 128 135 133 121 125 126 126 128 178 174 90 67 47 31 8 341 327 320 316 322 326 324 316 309 312 314 312 308 307 316 321 310 292 327 337 331 328 326 314 312 319 321 322 324 312 300 303 311 316 318 312 310 310 301 282 282 282 281 281 282 288 289 285 280 249 237 243 245 242 238 235 230 225 225
131 141 141 127 133 133 134 133 131 139 136 138 139 132 130 128 122 134 150 164 107 72 66 48 26 9 338 316 316 325 329 322 323 324 316 311 313 308 312 321 327 324 303 315 333 314 316 300 303 316 321 323 322 315 314 315 327 326 324 324 319 315 312 308 309 304 299 290 286 281 281 284 285 283 273 232 229 230 230 228 226 224 223 225 230
147 157 161 152 142 129 133 128 130 137 140 143 142 134 133 131 133 143 163 141 96 77 70 54 32 9 333 311 317 316 319 320 321 322 317 297 296 311 320 312 324 315 328 329 308 326 319 329 322 324 319 293 323 324 321 337 336 335 335 331 326 324 322 318 317 318 308 288 266 266 267 280 279 283 281 254 233 222 218 225 232 235 234 231 231
130 129 130 119 136 132 132 126 127 138 140 142 139 135 135 130 131 142 161 125 112 94 73 52 33 1 315 313 324 321 321 322 318 320 327 327 318 332 339 334 322 336 339 337 338 326 335 334 329 325 329 341 335 333 336 341 342 342 344 343 342 342 343 345 341 332 316 274 265 250 257 272 280 278 281 279 261 229 225 224 228 228 231 234 232
146 136 137 130 128 125 117 123 134 142 143 142 136 134 138 132 133 137 140 127 118 98 82 65 34 348 314 325 321 317 320 316 309 311 320 323 325 327 340 352 350 344 342 340 340 340 341 344 345 333 334 347 344 344 347 350 350 351 353 355 355 350 357 0 1 352 4 16 4 357 346 334 328 322 310 296 280 267 246 236 235 236 230 233 235